Location: Bakov nad Jizerou
(50.4784°N, 14.9394°E)
Time: 05:24:04
(UTC+00:00)

Cosmos 2360 Rocket - Pass Details

Date: 16 June 2021
Orbit: 835 x 843 km, 71.0° (Epoch: 28 July)

Event Time Altitude Azimuth Distance (km) Brightness Sun altitude
Rises 21:43:21 0° 229° (SW) 3,386 5.1 -14.2°
Reaches altitude 10° 21:45:54 10° 235° (SW) 2,454 4.4 -14.3°
Maximum altitude 21:51:18 46° 308° (NW) 1,125 3.3 -14.5°
Drops below altitude 10° 21:56:43 10° 21° (NNE) 2,462 5.4 -14.8°
Sets 21:59:17 0° 28° (NNE) 3,399 6.1 -14.9°
